CAPE
0 0 0 1 3 5 5 14 25 10 15 5 25 12 8 14 16 4 10 8 9 9 5 5 5 5 8 12 10 11 10 4 14 8 10 30 5 7 17 1 7 1 8
0 0 0 1 3 5 2 9 8 11 9 20 4 10 4 12 9 16 7 5 8 5 6 6 2 2 3 8 9 2 4 15 7 3 0 0 11 13 22 0 9 12 5
0 0 0 2 1 5 5 4 4 10 11 9 9 16 9 9 4 4 6 12 11 12 8 4 2 2 0 2 1 1 2 10 5 0 0 0 0 36 26 34 3 16 11
0 0 0 1 5 3 2 3 4 8 7 11 11 9 11 8 7 6 10 10 10 6 5 4 0 0 0 0 0 0 2 9 7 4 1 6 4 32 18 23 36 17 1
0 0 0 0 1 1 0 2 3 7 7 3 7 8 5 5 6 8 5 4 5 7 3 1 0 0 0 0 0 7 4 1 0 0 0 5 8 6 15 15 15 21 12
0 0 0 0 1 1 1 1 1 1 2 5 5 3 5 3 3 5 5 2 3 1 2 2 0 0 0 0 1 3 2 0 0 0 0 0 2 7 1 27 8 4 11
0 0 0 0 1 1 1 0 1 1 2 2 0 0 2 0 1 0 3 1 1 0 0 0 0 0 0 0 0 0 1 0 0 0 0 0 6 19 15 43 29 24 3
0 0 0 0 1 1 2 0 0 0 0 0 0 0 0 0 0 0 0 0 0 0 0 0 0 0 0 0 0 0 0 0 0 0 0 0 6 7 6 3 4 15 33
0 0 0 0 0 1 0 0 0 0 0 0 0 0 0 0 0 0 0 0 0 0 0 0 0 0 0 0 0 0 0 0 0 0 0 0 6 5 6 4 6 2 9
0 0 0 0 0 0 0 0 0 0 0 0 0 0 0 0 0 0 0 0 0 0 0 0 0 0 0 0 0 0 0 0 0 0 0 0 3 4 2 2 1 5 2
0 0 0 0 0 0 0 0 0 0 0 0 0 0 0 0 0 0 0 0 0 0 0 0 0 0 0 0 0 0 0 0 0 0 0 0 0 1 2 0 0 1 7
0 0 0 0 0 0 0 0 0 0 0 0 0 0 0 0 0 0 0 0 0 0 0 0 0 0 0 0 0 0 0 0 0 0 0 0 0 0 0 2 0 0 1
0 0 0 0 0 0 0 0 0 0 0 0 0 0 0 0 0 0 0 0 0 0 0 0 0 0 0 0 0 0 0 0 0 0 0 0 0 0 0 0 0 1 0
0 0 0 0 0 0 0 0 0 0 0 0 0 0 0 0 0 0 0 0 0 0 0 0 0 0 0 0 0 0 0 0 0 0 0 0 0 0 0 0 0 0 0
0 0 0 0 0 0 0 0 0 0 0 0 0 0 0 0 0 0 0 0 0 0 0 0 0 0 0 0 0 0 0 0 0 0 0 0 0 0 0 0 0 0 0
0 0 0 0 0 0 0 0 0 0 0 0 0 0 0 0 0 0 0 0 0 0 0 0 0 0 0 0 0 0 0 0 0 0 0 0 0 0 0 0 0 0 0
0 0 0 0 0 0 0 0 0 0 0 0 0 0 0 0 0 0 0 0 0 0 0 0 0 0 0 0 0 0 0 0 0 0 0 0 0 0 0 0 0 0 0
0 0 0 0 0 0 0 0 0 0 0 0 0 0 0 0 0 0 0 0 0 0 0 0 0 0 0 0 0 0 0 0 0 0 0 0 0 0 0 0 0 0 0
0 0 0 0 0 0 0 0 0 0 0 0 0 0 0 0 0 0 0 0 0 0 0 0 0 0 0 0 0 0 0 0 0 0 0 0 0 0 0 0 0 0 0
0 0 0 0 0 0 0 0 0 0 0 0 0 0 0 0 0 0 0 0 0 0 0 0 0 0 0 0 0 0 0 0 0 0 0 0 0 0 0 0 0 0 0
0 0 0 0 0 0 0 0 0 0 0 0 0 0 0 0 0 0 0 0 0 0 0 0 0 0 0 0 0 0 0 0 0 0 0 0 0 0 0 0 0 0 0
0 0 0 0 0 0 0 0 0 0 0 0 0 0 0 0 0 0 0 0 0 0 0 0 0 0 0 0 0 0 0 0 0 0 0 0 0 0 0 0 0 0 0
0 0 0 0 0 0 0 0 0 0 0 0 0 0 0 0 0 0 0 0 0 0 0 0 0 0 0 0 0 0 0 0 0 0 0 0 0 0 0 0 0 0 0
0 0 0 0 0 0 0 0 0 0 0 0 0 0 0 0 0 0 0 0 0 0 0 0 0 0 0 0 0 0 0 0 0 0 0 0 0 0 0 0 0 0 0
0 0 0 0 0 0 0 0 0 0 0 0 0 0 0 0 0 0 0 0 0 0 0 0 0 0 0 0 0 0 0 0 0 0 0 0 0 0 0 0 0 0 0
0 0 0 0 0 0 0 0 0 0 0 0 0 0 0 0 0 0 0 0 0 0 0 0 0 0 0 0 0 0 0 0 0 0 0 0 0 0 0 0 0 0 0
CIN
-0 -0 -0 -0 -0 -1 -0 -0 -1 -0 -1 -0 -0 -0 -2 -1 -1 -0 -0 -0 -1 -0 -1 -1 -1 -1 -0 -0 -0 -0 -0 -1 -0 -0 -5 -0 -0 -1 -0 -0 -0 -0 -0
-0 -0 -0 -0 -0 -0 -0 -1 -0 -0 -0 -0 -1 -1 -1 -0 -0 -0 -1 -1 -0 -1 -0 -0 -0 -0 -0 -0 -0 -0 -0 -0 -1 -1 -0 -9 -1 -0 -0 -0 -0 -0 -0
-0 -0 -0 -0 -0 -0 -0 -0 -0 -0 -0 -0 -0 -1 -0 -1 -0 -0 -0 -0 -0 -0 -0 -0 -0 -0 -0 -0 -0 -0 -0 -0 -0 -0 -0 -0 -0 -0 -0 -0 -0 -0 -0
-0 -0 -0 -0 -0 -0 -0 -0 -0 -0 -0 -0 -0 -0 -0 -0 -0 -0 -0 -0 -0 -0 -0 -0 -0 -0 -0 -0 -0 -0 -0 -0 -1 -7 -16 -8 -2 -0 -1 -1 -0 -0 -0
-0 -0 -0 -0 -0 -0 -0 -0 -0 -0 -0 -0 -0 -0 -0 -0 -0 -0 -0 -0 -0 -0 -0 -0 -0 -0 -0 -0 -0 -0 -0 -0 -0 -0 -3 -13 -10 -1 -1 -0 -1 -0 -1
-0 -0 -0 -0 -0 -0 -0 -0 -0 -0 -0 -0 -0 -0 -0 -0 -0 -0 -1 -0 -0 -0 -0 -0 -0 -0 -0 -0 -0 -0 -1 -0 -0 -0 -0 -0 -2 -0 -0 -1 -0 -0 -3
-0 -0 -0 -0 -0 -0 -0 -0 -0 -0 -0 -0 -0 -0 -0 -0 -0 -0 -0 -0 -0 -0 -0 -0 -0 -0 -0 -0 -0 -0 -0 -0 -0 -0 -0 -0 -6 -1 -1 -0 -1 -0 -0
-0 -0 -0 -0 -0 -0 -0 -0 -0 -0 -0 -0 -0 -0 -0 -0 -0 -0 -0 -0 -0 -0 -0 -0 -0 -0 -0 -0 -0 -0 -0 -0 -0 -0 -0 -0 -1 -0 -1 -2 -2 -0 -0
-0 -0 -0 -0 -0 -0 -0 -0 -0 -0 -0 -0 -0 -0 -0 -0 -0 -0 -0 -0 -0 -0 -0 -0 -0 -0 -0 -0 -0 -0 -0 -0 -0 -0 -0 -0 -0 -1 -0 -0 -0 -0 -2
-0 -0 -0 -0 -0 -0 -0 -0 -0 -0 -0 -0 -0 -0 -0 -0 -0 -0 -0 -0 -0 -0 -0 -0 -0 -0 -0 -0 -0 -0 -0 -0 -0 -0 -0 -0 -0 -0 -0 -0 -0 -0 -1
-0 -0 -0 -0 -0 -0 -0 -0 -0 -0 -0 -0 -0 -0 -0 -0 -0 -0 -0 -0 -0 -0 -0 -0 -0 -0 -0 -0 -0 -0 -0 -0 -0 -0 -0 -0 -0 -0 -0 -0 -0 -0 -0
-0 -0 -0 -0 -0 -0 -0 -0 -0 -0 -0 -0 -0 -0 -0 -0 -0 -0 -0 -0 -0 -0 -0 -0 -0 -0 -0 -0 -0 -0 -0 -0 -0 -0 -0 -0 -0 -0 -0 -0 -0 -0 -0
-0 -0 -0 -0 -0 -0 -0 -0 -0 -0 -0 -0 -0 -0 -0 -0 -0 -0 -0 -0 -0 -0 -0 -0 -0 -0 -0 -0 -0 -0 -0 -0 -0 -0 -0 -0 -0 -0 -0 -0 -0 -0 -0
-0 -0 -0 -0 -0 -0 -0 -0 -0 -0 -0 -0 -0 -0 -0 -0 -0 -0 -0 -0 -0 -0 -0 -0 -0 -0 -0 -0 -0 -0 -0 -0 -0 -0 -0 -0 -0 -0 -0 -0 -0 -0 -0
-0 -0 -0 -0 -0 -0 -0 -0 -0 -0 -0 -0 -0 -0 -0 -0 -0 -0 -0 -0 -0 -0 -0 -0 -0 -0 -0 -0 -0 -0 -0 -0 -0 -0 -0 -0 -0 -0 -0 -0 -0 -0 -0
-0 -0 -0 -0 -0 -0 -0 -0 -0 -0 -0 -0 -0 -0 -0 -0 -0 -0 -0 -0 -0 -0 -0 -0 -0 -0 -0 -0 -0 -0 -0 -0 -0 -0 -0 -0 -0 -0 -0 -0 -0 -0 -0
-0 -0 -0 -0 -0 -0 -0 -0 -0 -0 -0 -0 -0 -0 -0 -0 -0 -0 -0 -0 -0 -0 -0 -0 -0 -0 -0 -0 -0 -0 -0 -0 -0 -0 -0 -0 -0 -0 -0 -0 -0 -0 -0
-0 -0 -0 -0 -0 -0 -0 -0 -0 -0 -0 -0 -0 -0 -0 -0 -0 -0 -0 -0 -0 -0 -0 -0 -0 -0 -0 -0 -0 -0 -0 -0 -0 -0 -0 -0 -0 -0 -0 -0 -0 -0 -0
-0 -0 -0 -0 -0 -0 -0 -0 -0 -0 -0 -0 -0 -0 -0 -0 -0 -0 -0 -0 -0 -0 -0 -0 -0 -0 -0 -0 -0 -0 -0 -0 -0 -0 -0 -0 -0 -0 -0 -0 -0 -0 -0
-0 -0 -0 -0 -0 -0 -0 -0 -0 -0 -0 -0 -0 -0 -0 -0 -0 -0 -0 -0 -0 -0 -0 -0 -0 -0 -0 -0 -0 -0 -0 -0 -0 -0 -0 -0 -0 -0 -0 -0 -0 -0 -0
-0 -0 -0 -0 -0 -0 -0 -0 -0 -0 -0 -0 -0 -0 -0 -0 -0 -0 -0 -0 -0 -0 -0 -0 -0 -0 -0 -0 -0 -0 -0 -0 -0 -0 -0 -0 -0 -0 -0 -0 -0 -0 -0
-0 -0 -0 -0 -0 -0 -0 -0 -0 -0 -0 -0 -0 -0 -0 -0 -0 -0 -0 -0 -0 -0 -0 -0 -0 -0 -0 -0 -0 -0 -0 -0 -0 -0 -0 -0 -0 -0 -0 -0 -0 -0 -0
-0 -0 -0 -0 -0 -0 -0 -0 -0 -0 -0 -0 -0 -0 -0 -0 -0 -0 -0 -0 -0 -0 -0 -0 -0 -0 -0 -0 -0 -0 -0 -0 -0 -0 -0 -0 -0 -0 -0 -0 -0 -0 -0
-0 -0 -0 -0 -0 -0 -0 -0 -0 -0 -0 -0 -0 -0 -0 -0 -0 -0 -0 -0 -0 -0 -0 -0 -0 -0 -0 -0 -0 -0 -0 -0 -0 -0 -0 -0 -0 -0 -0 -0 -0 -0 -0
-0 -0 -0 -0 -0 -0 -0 -0 -0 -0 -0 -0 -0 -0 -0 -0 -0 -0 -0 -0 -0 -0 -0 -0 -0 -0 -0 -0 -0 -0 -0 -0 -0 -0 -0 -0 -0 -0 -0 -0 -0 -0 -0
-0 -0 -0 -0 -0 -0 -0 -0 -0 -0 -0 -0 -0 -0 -0 -0 -0 -0 -0 -0 -0 -0 -0 -0 -0 -0 -0 -0 -0 -0 -0 -0 -0 -0 -0 -0 -0 -0 -0 -0 -0 -0 -0
Wind_Speed
21 22 22 23 24 24 24 24 25 24 23 24 25 25 25 26 27 25 23 24 22 24 21 23 24 23 27 26 24 20 21 24 25 24 22 21 20 21 20 18 19 18 18
23 22 24 24 25 25 25 24 26 26 26 27 27 27 27 27 27 28 27 25 23 24 25 21 20 22 22 25 25 25 24 23 21 22 22 20 21 21 20 19 19 19 19
24 25 25 26 26 25 24 24 22 24 24 24 25 24 24 21 25 25 18 17 26 2 15 19 20 17 23 26 27 26 26 27 25 24 22 20 19 26 23 23 21 20 20
26 27 27 26 25 25 24 24 22 23 21 21 21 20 21 21 19 20 19 19 19 17 16 12 2 15 26 29 28 27 28 28 28 27 26 26 26 26 25 25 25 23 22
27 27 27 26 25 24 24 24 23 22 23 21 21 20 20 19 19 18 20 18 18 19 21 20 22 21 28 28 27 28 28 29 28 28 27 28 28 26 26 26 26 26 25
27 27 26 25 24 24 23 23 22 22 21 22 21 21 19 20 19 18 18 18 17 17 16 19 19 21 25 26 26 27 28 28 28 27 26 27 27 27 26 26 25 24 25
27 26 25 25 24 23 23 22 22 21 21 20 20 19 19 19 18 18 16 16 16 15 16 16 17 17 19 21 21 21 25 26 24 25 26 27 27 26 26 27 26 25 23
27 26 25 25 24 23 23 22 21 21 20 20 19 18 18 17 17 16 16 15 13 12 12 12 12 13 14 16 17 17 18 22 22 23 23 22 24 25 24 24 25 25 25
27 26 25 24 24 23 22 22 21 20 20 19 19 18 17 16 16 15 12 10 10 11 12 12 13 13 14 14 14 13 14 18 20 19 20 20 22 23 23 22 23 23 24
27 25 25 24 24 23 22 21 20 20 19 18 18 17 16 15 14 13 12 11 12 12 13 13 13 14 14 12 12 13 13 15 15 14 15 16 18 21 21 22 21 22 21
26 25 24 23 23 22 21 21 20 19 19 18 18 17 16 15 14 13 12 12 12 12 12 13 13 13 13 12 10 11 12 12 13 13 13 13 13 15 19 21 20 21 21
26 24 23 23 22 22 21 20 19 19 18 18 18 17 15 14 13 13 12 12 12 12 12 11 11 10 10 11 10 11 11 11 11 11 11 11 12 13 15 19 18 18 19
24 23 23 22 22 21 20 20 19 19 18 18 17 16 15 13 13 13 12 11 11 10 10 10 10 9 9 9 9 8 8 9 9 9 9 9 10 12 12 14 17 18 18
24 23 22 22 21 21 21 21 20 19 18 18 17 16 15 14 13 12 11 11 10 10 9 10 10 10 9 9 9 9 9 8 7 7 7 7 7 8 9 11 15 16 18
24 23 22 23 23 23 22 21 20 19 18 17 16 15 15 13 12 11 10 10 10 10 10 9 10 10 9 9 9 9 9 8 8 8 7 5 5 6 7 9 11 13 15
26 25 23 23 23 21 21 20 19 18 18 17 16 15 14 12 11 10 10 9 9 9 9 9 9 10 10 10 9 9 9 8 8 7 6 6 6 5 5 8 10 12 13
27 25 24 23 22 21 21 20 20 18 17 16 15 14 13 11 10 10 9 9 8 9 9 9 11 11 12 12 11 11 10 9 8 7 7 6 6 6 5 6 10 12 14
27 25 25 23 22 21 21 20 19 18 17 16 14 13 12 11 10 9 8 8 8 9 10 10 10 11 13 14 13 12 11 10 8 8 7 7 7 8 7 7 9 12 14
27 25 25 23 22 22 21 20 20 19 18 17 16 14 13 11 10 9 8 7 8 8 9 10 10 12 12 12 12 12 11 10 8 8 7 6 6 8 9 9 10 11 13
26 25 25 24 24 23 22 22 21 21 20 18 16 15 13 12 11 10 8 7 7 7 7 9 11 13 12 13 13 13 12 11 11 10 9 8 7 7 10 12 13 15 14
27 26 27 26 26 26 25 25 23 22 20 19 17 15 14 13 11 10 8 7 6 6 5 7 10 11 12 16 18 19 18 17 17 16 16 12 10 9 10 14 16 18 18
28 28 28 29 29 29 27 25 24 22 20 18 17 16 14 12 11 9 8 6 5 4 4 5 7 10 12 14 17 22 22 22 18 23 18 17 14 14 14 15 17 20 21
31 31 30 30 30 29 27 26 24 22 20 18 17 15 13 11 9 8 6 5 4 4 3 4 6 7 7 15 15 18 22 21 27 20 21 18 19 19 17 18 19 22 23
32 31 30 30 30 29 27 26 24 22 21 18 16 13 11 9 8 6 4 3 2 4 4 4 5 6 10 12 16 12 12 17 23 25 22 20 22 20 21 22 24 24 26
30 30 29 29 29 27 26 25 24 22 20 17 13 11 9 7 6 4 3 3 3 4 5 5 6 7 8 11 14 17 17 15 14 16 20 25 23 21 20 22 24 25 26
29 28 27 27 27 26 25 24 23 22 19 16 14 11 8 6 4 3 4 4 4 5 5 7 7 7 9 10 12 14 15 18 19 18 20 24 25 25 25 25 26 28 28
Wind_Direction
102 99 89 90 86 90 74 73 68 60 45 50 54 46 49 47 49 36 26 32 19 23 13 16 15 12 24 24 21 4 6 17 16 14 1 357 356 355 350 347 347 349 349
102 95 99 95 105 90 102 103 92 80 79 72 79 65 55 57 49 53 51 35 27 23 24 8 5 11 10 20 22 20 11 9 359 4 3 355 360 1 352 4 353 352 344
103 105 109 122 121 119 124 123 125 119 115 112 109 112 109 116 101 100 119 120 81 345 359 4 4 355 11 27 30 19 21 24 9 15 3 352 347 17 10 17 7 355 352
114 117 129 132 132 128 130 126 130 126 131 128 127 126 122 119 121 118 119 116 116 118 118 123 337 351 23 51 49 38 35 35 34 20 17 22 30 16 22 13 12 11 357
121 124 129 132 132 130 130 128 131 131 126 131 129 128 126 125 123 122 117 119 116 111 102 101 91 60 68 70 70 60 55 45 43 34 23 35 31 38 21 23 17 14 12
124 126 129 133 132 131 132 129 130 130 131 127 127 126 126 121 121 122 122 120 117 116 114 106 103 95 81 76 73 63 53 48 48 35 16 14 23 22 27 22 23 20 18
130 134 131 134 134 134 132 132 133 138 134 136 132 132 131 129 128 125 127 123 122 119 116 114 109 106 101 97 95 89 76 63 69 59 41 19 27 26 27 23 28 29 30
131 136 133 137 137 136 136 136 138 139 138 139 137 139 137 137 135 133 129 130 132 135 131 129 127 121 116 109 104 100 94 78 77 67 63 63 50 40 38 29 21 19 19
137 136 139 144 143 143 142 140 140 141 142 141 142 141 141 142 142 146 155 159 153 145 136 129 123 122 117 111 110 109 106 86 82 76 66 63 54 45 39 35 27 21 13
146 143 141 146 147 146 145 143 143 142 144 145 147 150 151 155 157 155 154 150 142 134 128 122 117 114 113 112 107 104 100 94 95 92 83 78 61 42 39 35 32 23 21
152 147 145 145 145 143 145 145 144 147 150 153 155 156 158 159 163 162 156 147 137 129 126 117 112 109 108 104 107 103 95 92 88 88 83 82 73 59 38 28 26 23 19
155 154 151 149 147 145 146 148 143 143 147 151 157 164 169 168 169 157 153 144 134 127 122 120 117 113 109 102 100 94 88 88 83 81 83 77 66 58 45 23 23 21 16
155 155 157 155 152 148 148 150 150 152 154 159 162 164 163 161 151 143 143 141 129 126 118 112 111 106 100 98 91 89 88 81 75 71 73 69 62 52 46 32 15 11 9
159 158 161 159 155 159 162 163 164 163 163 164 164 163 157 149 147 142 135 132 124 115 107 100 93 87 85 78 76 68 67 69 64 65 62 63 57 53 47 35 16 7 2
165 164 162 164 166 168 169 169 167 168 165 164 158 154 148 144 140 133 125 115 109 101 95 90 80 71 71 66 61 55 53 49 48 46 46 49 45 44 37 30 20 13 5
176 175 169 166 166 159 164 166 166 167 167 162 157 152 146 140 129 125 123 115 108 98 90 81 74 65 57 52 50 45 39 37 35 31 28 25 23 22 22 18 12 3 360
182 178 173 169 165 164 168 168 168 167 161 160 157 153 146 139 127 120 117 109 102 89 86 72 60 51 43 41 36 32 28 24 21 18 16 11 5 2 359 0 359 356 348
183 178 175 171 169 168 168 169 168 164 157 155 151 147 147 144 139 132 124 116 97 80 67 60 54 45 37 31 28 23 18 14 9 7 5 1 358 353 349 341 346 347 345
182 178 175 170 169 169 168 167 167 167 165 166 165 164 161 156 148 139 130 117 93 76 60 50 46 38 33 30 24 18 11 2 355 357 352 351 350 351 346 339 334 335 337
180 176 175 172 171 169 167 169 173 178 179 177 174 171 166 159 156 148 146 136 109 83 66 47 34 27 26 21 15 9 5 6 13 18 12 5 1 355 349 343 339 335 331
179 174 174 173 175 172 176 176 179 177 176 177 174 172 169 167 160 151 147 137 114 91 68 50 33 25 22 18 13 14 14 22 21 25 10 11 10 6 356 347 340 335 329
178 177 175 177 177 178 177 175 176 175 177 174 173 175 171 166 160 154 150 140 120 91 69 55 41 27 22 23 19 12 15 14 22 2 17 11 10 4 355 346 338 334 330
180 179 178 177 177 175 173 173 176 174 174 165 169 168 170 162 159 152 145 133 112 81 60 49 45 35 17 18 18 15 12 10 359 14 5 13 10 1 352 345 338 332 328
181 178 176 176 175 175 169 169 167 170 172 170 166 160 156 143 150 151 147 130 105 62 47 36 39 32 21 5 8 6 1 359 1 358 4 358 350 354 350 345 338 332 328
177 176 174 173 174 172 170 171 172 175 177 174 164 163 162 158 150 139 116 90 63 45 32 28 28 25 19 8 2 359 356 353 349 342 340 349 349 346 344 340 336 333 330
176 173 172 172 175 173 171 174 176 178 177 176 176 175 171 157 136 104 72 57 43 34 26 20 18 15 8 2 1 356 350 350 351 347 337 338 337 340 342 336 337 335 333